| time (UTC) | temp C | wind direction | speed KPH | gust KPH | rain 1hr cm | rain 24hr cm | rain mn cm | humidity % | barometer mb |
| 20260510110032 | 1 | 190 | 0.0 | 0.0 | 0.00 | 0.00 | 0.00 | 84 | 1025.3 |
| 20260510105028 | 1 | 190 | 0.0 | 0.0 | 0.00 | 0.00 | 0.00 | 85 | 1025.2 |
| 20260510104022 | 1 | 190 | 0.0 | 0.0 | 0.00 | 0.00 | 0.00 | 85 | 1025.4 |
| 20260510103039 | 1 | 167 | 0.0 | 0.0 | 0.00 | 0.00 | 0.00 | 85 | 1025.3 |
| 20260510102035 | 1 | 167 | 0.0 | 0.0 | 0.00 | 0.00 | 0.00 | 84 | 1025.1 |
| 20260510101028 | 1 | 166 | 0.0 | 0.0 | 0.00 | 0.00 | 0.00 | 83 | 1024.9 |
| 20260510095025 | 1 | 165 | 0.0 | 0.0 | 0.00 | 0.00 | 0.00 | 83 | 1024.7 |
| 20260510093021 | 1 | 166 | 1.6 | 0.0 | 0.00 | 0.00 | 0.00 | 82 | 1024.6 |
| 20260510091031 | 1 | 166 | 3.2 | 0.0 | 0.00 | 0.00 | 0.00 | 82 | 1024.5 |
| 20260510085018 | 0 | 165 | 0.0 | 0.0 | 0.00 | 0.00 | 0.00 | 84 | 1024.3 |
| 20260510083038 | 0 | 165 | 0.0 | 0.0 | 0.00 | 0.00 | 0.00 | 83 | 1024.9 |
| 20260510082032 | 0 | 165 | 3.2 | 0.0 | 0.00 | 0.00 | 0.00 | 81 | 1024.6 |
| 20260510081027 | 0 | 166 | 0.0 | 0.0 | 0.00 | 0.00 | 0.00 | 79 | 1024.4 |
| 20260510080040 | 0 | 166 | 1.6 | 0.0 | 0.00 | 0.00 | 0.00 | 81 | 1024.2 |
| 20260510075037 | 0 | 165 | 4.8 | 0.0 | 0.00 | 0.00 | 0.00 | 81 | 1024.1 |
| 20260510073026 | 0 | 166 | 3.2 | 0.0 | 0.00 | 0.00 | 0.00 | 84 | 1024.0 |
| 20260510072021 | 0 | 166 | 3.2 | 0.0 | 0.00 | 0.00 | 0.00 | 83 | 1024.7 |
| 20260510071036 | 0 | 166 | 1.6 | 0.0 | 0.00 | 0.00 | 0.00 | 82 | 1024.6 |
| 20260510070033 | 0 | 112 | 0.0 | 0.0 | 0.00 | 0.00 | 0.00 | 82 | 1024.5 |
| 20260510065026 | 1 | 112 | 1.6 | 0.0 | 0.00 | 0.00 | 0.00 | 83 | 1024.4 |
| 20260510064021 | 1 | 112 | 3.2 | 0.0 | 0.00 | 0.00 | 0.00 | 83 | 1024.4 |
| 20260510063020 | 1 | 111 | 0.0 | 0.0 | 0.00 | 0.00 | 0.00 | 81 | 1024.4 |
| 20260510062038 | 1 | 111 | 0.0 | 0.0 | 0.00 | 0.00 | 0.00 | 82 | 1024.3 |
| 20260510061035 | 2 | 112 | 0.0 | 0.0 | 0.00 | 0.00 | 0.00 | 82 | 1023.9 |
| 20260510060034 | 2 | 112 | 0.0 | 0.0 | 0.00 | 0.00 | 0.00 | 80 | 1024.0 |
| 20260510055028 | 2 | 112 | 0.0 | 0.0 | 0.00 | 0.00 | 0.00 | 80 | 1024.1 |
| 20260510054023 | 2 | 111 | 0.0 | 0.0 | 0.00 | 0.00 | 0.00 | 79 | 1023.9 |
| 20260510053023 | 3 | 111 | 0.0 | 0.0 | 0.00 | 0.00 | 0.00 | 78 | 1023.8 |
| 20260510052035 | 3 | 112 | 0.0 | 0.0 | 0.00 | 0.00 | 0.00 | 78 | 1024.0 |
| 20260510051028 | 3 | 323 | 0.0 | 0.0 | 0.00 | 0.00 | 0.00 | 77 | 1024.6 |
| 20260510045039 | 3 | 305 | 3.2 | 0.0 | 0.00 | 0.00 | 0.00 | 75 | 1024.4 |
| 20260510044033 | 4 | 206 | 3.2 | 0.0 | 0.00 | 0.00 | 0.00 | 74 | 1024.2 |
| 20260510043035 | 4 | 299 | 1.6 | 0.0 | 0.00 | 0.00 | 0.00 | 74 | 1023.9 |
| 20260510042029 | 5 | 290 | 4.8 | 0.0 | 0.00 | 0.00 | 0.00 | 73 | 1023.4 |
| 20260510040038 | 6 | 281 | 1.6 | 0.0 | 0.00 | 0.00 | 0.00 | 66 | 1023.2 |
| 20260510035032 | 6 | 299 | 0.0 | 0.0 | 0.00 | 0.00 | 0.00 | 61 | 1022.2 |
| 20260510034034 | 7 | 287 | 0.0 | 0.0 | 0.00 | 0.00 | 0.00 | 52 | 1022.0 |
| 20260510032025 | 8 | 246 | 0.0 | 0.0 | 0.00 | 0.00 | 0.00 | 46 | 1022.2 |
| 20260510031022 | 8 | 328 | 1.6 | 0.0 | 0.00 | 0.00 | 0.00 | 45 | 1021.5 |
| 20260510030023 | 9 | 300 | 6.4 | 0.0 | 0.00 | 0.00 | 0.00 | 44 | 1021.9 |
| 20260510025034 | 10 | 286 | 1.6 | 0.0 | 0.00 | 0.00 | 0.00 | 37 | 1021.6 |
| 20260510024028 | 10 | 289 | 1.6 | 0.0 | 0.00 | 0.00 | 0.00 | 37 | 1021.1 |
| 20260510023022 | 11 | 314 | 3.2 | 0.0 | 0.00 | 0.00 | 0.00 | 35 | 1021.0 |
| 20260510021034 | 11 | 260 | 1.6 | 0.0 | 0.00 | 0.00 | 0.00 | 33 | 1020.4 |
| 20260510020030 | 11 | 355 | 1.6 | 0.0 | 0.00 | 0.00 | 0.00 | 31 | 1020.1 |
| 20260510015022 | 11 | 355 | 0.0 | 0.0 | 0.00 | 0.00 | 0.00 | 30 | 1020.0 |
| 20260510014019 | 11 | 276 | 0.0 | 0.0 | 0.00 | 0.00 | 0.00 | 29 | 1019.7 |
| 20260510011033 | 12 | 276 | 0.0 | 0.0 | 0.00 | 0.00 | 0.00 | 28 | 1019.7 |
| 20260510010028 | 12 | 276 | 0.0 | 0.0 | 0.00 | 0.00 | 0.00 | 26 | 1019.5 |
| 20260510005024 | 13 | 276 | 0.0 | 0.0 | 0.00 | 0.00 | 0.00 | 25 | 1019.7 |
| 20260510003032 | 13 | 26 | 0.0 | 0.0 | 0.00 | 0.00 | 0.00 | 24 | 1019.6 |
| 20260510002034 | 13 | 217 | 1.6 | 0.0 | 0.00 | 0.00 | 0.00 | 23 | 1019.6 |
| 20260510001030 | 13 | 317 | 3.2 | 0.0 | 0.00 | 0.00 | 0.00 | 22 | 1019.7 |
| 20260510000023 | 14 | 287 | 4.8 | 0.0 | 0.00 | 0.00 | 0.00 | 21 | 1019.6 |
| 20260509235038 | 15 | 236 | 3.2 | 0.0 | 0.00 | 0.00 | 0.00 | 20 | 1019.6 |
| 20260509234035 | 15 | 319 | 4.8 | 0.0 | 0.00 | 0.00 | 0.00 | 20 | 1019.7 |
| 20260509233031 | 15 | 283 | 6.4 | 0.0 | 0.00 | 0.00 | 0.00 | 20 | 1019.6 |
| 20260509232028 | 15 | 280 | 3.2 | 0.0 | 0.00 | 0.00 | 0.00 | 20 | 1019.7 |
| 20260509231039 | 15 | 280 | 4.8 | 0.0 | 0.00 | 0.00 | 0.00 | 22 | 1019.8 |
| 20260509230033 | 15 | 232 | 4.8 | 0.0 | 0.00 | 0.00 | 0.00 | 22 | 1019.8 |
| 20260509225031 | 15 | 332 | 4.8 | 0.0 | 0.00 | 0.00 | 0.00 | 21 | 1019.9 |
| 20260509224023 | 15 | 288 | 3.2 | 0.0 | 0.00 | 0.00 | 0.00 | 25 | 1019.7 |
| 20260509223039 | 15 | 267 | 4.8 | 0.0 | 0.00 | 0.00 | 0.00 | 25 | 1019.5 |
| 20260509221028 | 16 | 281 | 3.2 | 0.0 | 0.00 | 0.00 | 0.00 | 25 | 1019.5 |
| 20260509220024 | 16 | 252 | 3.2 | 0.0 | 0.00 | 0.00 | 0.00 | 23 | 1019.5 |
| 20260509215039 | 16 | 292 | 4.8 | 0.0 | 0.00 | 0.00 | 0.00 | 23 | 1019.5 |
| 20260509214032 | 17 | 281 | 1.6 | 0.0 | 0.00 | 0.00 | 0.00 | 24 | 1019.4 |
| 20260509213027 | 16 | 263 | 4.8 | 0.0 | 0.00 | 0.00 | 0.00 | 27 | 1019.7 |
| 20260509212021 | 16 | 328 | 6.4 | 0.0 | 0.00 | 0.00 | 0.00 | 23 | 1019.4 |
| 20260509210040 | 16 | 215 | 3.2 | 0.0 | 0.00 | 0.00 | 0.00 | 26 | 1019.5 |
| 20260509205030 | 16 | 306 | 4.8 | 0.0 | 0.00 | 0.00 | 0.00 | 24 | 1019.7 |
| 20260509204028 | 16 | 271 | 4.8 | 0.0 | 0.00 | 0.00 | 0.00 | 25 | 1019.7 |
| 20260509203026 | 16 | 303 | 3.2 | 0.0 | 0.00 | 0.00 | 0.00 | 25 | 1019.5 |
| 20260509202027 | 16 | 262 | 4.8 | 0.0 | 0.00 | 0.00 | 0.00 | 24 | 1019.6 |
| 20260509201038 | 16 | 303 | 4.8 | 0.0 | 0.00 | 0.00 | 0.00 | 24 | 1020.0 |
| 20260509200032 | 16 | 284 | 4.8 | 0.0 | 0.00 | 0.00 | 0.00 | 24 | 1020.1 |
| 20260509194022 | 16 | 300 | 4.8 | 0.0 | 0.00 | 0.00 | 0.00 | 25 | 1019.7 |
| 20260509193023 | 15 | 279 | 4.8 | 0.0 | 0.00 | 0.00 | 0.00 | 25 | 1019.6 |
| 20260509192036 | 15 | 276 | 3.2 | 0.0 | 0.00 | 0.00 | 0.00 | 27 | 1020.0 |
| 20260509191029 | 16 | 283 | 3.2 | 0.0 | 0.00 | 0.00 | 0.00 | 27 | 1019.9 |
| 20260509190023 | 16 | 306 | 3.2 | 0.0 | 0.00 | 0.00 | 0.00 | 28 | 1019.8 |
| 20260509185035 | 15 | 288 | 1.6 | 0.0 | 0.00 | 0.00 | 0.00 | 27 | 1019.7 |
| 20260509184033 | 15 | 294 | 4.8 | 0.0 | 0.00 | 0.00 | 0.00 | 26 | 1019.9 |
| 20260509183027 | 15 | 53 | 3.2 | 0.0 | 0.00 | 0.00 | 0.00 | 28 | 1019.6 |
| 20260509181036 | 15 | 294 | 3.2 | 0.0 | 0.00 | 0.00 | 0.00 | 31 | 1019.7 |
| 20260509180029 | 15 | 294 | 4.8 | 0.0 | 0.00 | 0.00 | 0.00 | 34 | 1019.9 |
| 20260509175026 | 15 | 302 | 3.2 | 0.0 | 0.00 | 0.00 | 0.00 | 31 | 1020.0 |
| 20260509174022 | 14 | 126 | 4.8 | 0.0 | 0.00 | 0.00 | 0.00 | 32 | 1020.1 |
| 20260509172028 | 13 | 273 | 4.8 | 0.0 | 0.00 | 0.00 | 0.00 | 35 | 1020.0 |
| 20260509171020 | 13 | 131 | 4.8 | 0.0 | 0.00 | 0.00 | 0.00 | 34 | 1020.2 |
| 20260509170021 | 14 | 221 | 3.2 | 0.0 | 0.00 | 0.00 | 0.00 | 35 | 1020.1 |
| 20260509165034 | 14 | 190 | 3.2 | 0.0 | 0.00 | 0.00 | 0.00 | 33 | 1020.0 |
| 20260509164030 | 14 | 279 | 3.2 | 0.0 | 0.00 | 0.00 | 0.00 | 34 | 1019.9 |
| 20260509163023 | 15 | 336 | 1.6 | 0.0 | 0.00 | 0.00 | 0.00 | 33 | 1020.2 |
| 20260509162017 | 14 | 221 | 3.2 | 0.0 | 0.00 | 0.00 | 0.00 | 37 | 1019.9 |
| 20260509161038 | 13 | 325 | 1.6 | 0.0 | 0.00 | 0.00 | 0.00 | 33 | 1019.8 |
| 20260509160034 | 13 | 345 | 1.6 | 0.0 | 0.00 | 0.00 | 0.00 | 35 | 1020.1 |
| 20260509155028 | 13 | 92 | 1.6 | 0.0 | 0.00 | 0.00 | 0.00 | 36 | 1019.4 |
| 20260509154022 | 13 | 302 | 1.6 | 0.0 | 0.00 | 0.00 | 0.00 | 38 | 1019.4 |
| 20260509153022 | 12 | 190 | 1.6 | 0.0 | 0.00 | 0.00 | 0.00 | 37 | 1019.5 |
| 20260509152036 | 13 | 226 | 1.6 | 0.0 | 0.00 | 0.00 | 0.00 | 34 | 1019.6 |
| 20260509151029 | 12 | 13 | 3.2 | 0.0 | 0.00 | 0.00 | 0.00 | 36 | 1019.7 |
| 20260509150023 | 12 | 252 | 3.2 | 0.0 | 0.00 | 0.00 | 0.00 | 36 | 1019.6 |
| 20260509145040 | 12 | 313 | 1.6 | 0.0 | 0.00 | 0.00 | 0.00 | 39 | 1019.6 |
| 20260509144036 | 12 | 240 | 1.6 | 0.0 | 0.00 | 0.00 | 0.00 | 36 | 1019.6 |
| 20260509143027 | 11 | 174 | 1.6 | 0.0 | 0.00 | 0.00 | 0.00 | 38 | 1019.5 |
| 20260509142037 | 11 | 5 | 1.6 | 0.0 | 0.00 | 0.00 | 0.00 | 39 | 1019.5 |
| 20260509141028 | 11 | 288 | 3.2 | 0.0 | 0.00 | 0.00 | 0.00 | 41 | 1019.6 |
| 20260509135033 | 10 | 96 | 4.8 | 0.0 | 0.00 | 0.00 | 0.00 | 43 | 1019.9 |
| 20260509134029 | 10 | 112 | 1.6 | 0.0 | 0.00 | 0.00 | 0.00 | 43 | 1019.8 |
| 20260509133040 | 9 | 14 | 0.0 | 0.0 | 0.00 | 0.00 | 0.00 | 46 | 1019.7 |
| 20260509131025 | 8 | 58 | 0.0 | 0.0 | 0.00 | 0.00 | 0.00 | 49 | 1019.8 |
| 20260509130037 | 7 | 249 | 0.0 | 0.0 | 0.00 | 0.00 | 0.00 | 52 | 1019.9 |
| 20260509125037 | 6 | 265 | 0.0 | 0.0 | 0.00 | 0.00 | 0.00 | 58 | 1019.9 |
| 20260509124033 | 5 | 265 | 0.0 | 0.0 | 0.00 | 0.00 | 0.00 | 59 | 1019.2 |
| 20260509123028 | 4 | 265 | 0.0 | 0.0 | 0.00 | 0.00 | 0.00 | 58 | 1019.9 |
| 20260509122023 | 4 | 154 | 0.0 | 0.0 | 0.00 | 0.00 | 0.00 | 57 | 1019.9 |
| 20260509121027 | 5 | 247 | 0.0 | 0.0 | 0.00 | 0.00 | 0.00 | 58 | 1019.8 |
| 20260509120022 | 5 | 247 | 0.0 | 0.0 | 0.00 | 0.00 | 0.00 | 57 | 1019.5 |
| 20260509115035 | 5 | 247 | 0.0 | 0.0 | 0.00 | 0.00 | 0.00 | 55 | 1019.4 |
| 20260509111018 | 7 | 247 | 0.0 | 0.0 | 0.00 | 0.00 | 0.00 | 52 | 1019.3 |